TimeEST,TemperatureF,Dew PointF,Humidity,Sea Level PressureIn,VisibilityMPH,Wind Direction,Wind SpeedMPH,Gust SpeedMPH,PrecipitationIn,Events,Conditions,WindDirDegrees,DateUTC
12:15 AM,28.4,22.3,78,29.89,10.0,North,6.9,-,N/A,,Overcast,10,2013-02-05 05:15:00
12:35 AM,28.2,22.1,78,29.90,7.0,North,6.9,-,N/A,,Overcast,360,2013-02-05 05:35:00
12:55 AM,28.0,22.1,78,29.91,7.0,North,5.8,-,N/A,,Overcast,350,2013-02-05 05:55:00
1:15 AM,27.5,22.1,80,29.91,7.0,NNW,6.9,-,N/A,,Overcast,340,2013-02-05 06:15:00
1:35 AM,27.1,21.7,80,29.91,7.0,North,5.8,-,N/A,,Overcast,360,2013-02-05 06:35:00
1:55 AM,26.8,21.6,81,29.91,7.0,North,5.8,-,N/A,,Overcast,10,2013-02-05 06:55:00
2:15 AM,26.6,21.2,80,29.91,7.0,North,6.9,-,N/A,,Overcast,360,2013-02-05 07:15:00
2:35 AM,26.6,21.2,80,29.91,7.0,North,6.9,-,N/A,,Overcast,350,2013-02-05 07:35:00
2:55 AM,26.6,21.2,80,29.91,7.0,North,8.1,-,N/A,,Overcast,350,2013-02-05 07:55:00
3:15 AM,26.2,20.8,80,29.91,7.0,North,8.1,-,N/A,,Overcast,10,2013-02-05 08:15:00
3:35 AM,26.2,20.3,78,29.91,10.0,North,5.8,-,N/A,,Overcast,10,2013-02-05 08:35:00
3:55 AM,25.2,19.4,79,29.91,7.0,NNE,4.6,-,N/A,,Scattered Clouds,30,2013-02-05 08:55:00
4:15 AM,24.3,19.2,81,29.90,7.0,Calm,Calm,-,N/A,,Clear,0,2013-02-05 09:15:00
4:35 AM,24.3,18.5,79,29.89,10.0,Calm,Calm,-,N/A,,Clear,0,2013-02-05 09:35:00
4:55 AM,24.3,18.5,79,29.91,10.0,Calm,Calm,-,N/A,,Scattered Clouds,0,2013-02-05 09:55:00
5:15 AM,23.9,19.0,82,29.91,10.0,Calm,Calm,-,N/A,,Scattered Clouds,0,2013-02-05 10:15:00
5:35 AM,23.9,19.0,82,29.91,10.0,Calm,Calm,-,N/A,,Scattered Clouds,0,2013-02-05 10:35:00
5:55 AM,23.9,19.0,82,29.91,7.0,Calm,Calm,-,N/A,,Clear,0,2013-02-05 10:55:00
6:15 AM,23.4,19.0,84,29.91,7.0,Calm,Calm,-,N/A,,Clear,0,2013-02-05 11:15:00
6:35 AM,22.6,18.5,84,29.91,7.0,Calm,Calm,-,N/A,,Clear,0,2013-02-05 11:35:00
6:55 AM,22.6,18.7,85,29.91,7.0,Calm,Calm,-,N/A,,Clear,0,2013-02-05 11:55:00
7:15 AM,21.0,17.1,85,29.91,5.0,Calm,Calm,-,N/A,,Clear,0,2013-02-05 12:15:00
7:35 AM,21.6,18.0,86,29.92,5.0,Calm,Calm,-,N/A,,Clear,0,2013-02-05 12:35:00
7:55 AM,22.1,18.9,87,29.92,5.0,Calm,Calm,-,N/A,,Clear,0,2013-02-05 12:55:00
8:15 AM,22.8,19.4,87,29.92,4.0,Calm,Calm,-,N/A,,Clear,0,2013-02-05 13:15:00
8:35 AM,23.4,19.8,86,29.92,4.0,Calm,Calm,-,N/A,,Clear,0,2013-02-05 13:35:00
8:55 AM,24.3,20.3,85,29.92,5.0,Calm,Calm,-,N/A,,Clear,0,2013-02-05 13:55:00
9:15 AM,24.8,20.3,83,29.92,7.0,Calm,Calm,-,N/A,,Scattered Clouds,0,2013-02-05 14:15:00
9:35 AM,25.7,20.1,79,29.93,7.0,Calm,Calm,-,N/A,,Mostly Cloudy,0,2013-02-05 14:35:00
9:55 AM,26.1,19.9,78,29.94,10.0,SSW,3.5,-,N/A,,Overcast,210,2013-02-05 14:55:00
10:15 AM,26.6,19.9,76,29.93,10.0,Calm,Calm,-,N/A,,Overcast,0,2013-02-05 15:15:00
10:35 AM,27.1,19.9,74,29.94,10.0,South,4.6,-,N/A,,Overcast,190,2013-02-05 15:35:00
10:55 AM,27.9,20.7,74,29.93,10.0,South,4.6,-,N/A,,Overcast,170,2013-02-05 15:55:00
11:15 AM,28.4,20.8,73,29.92,7.0,SSE,4.6,-,N/A,,Overcast,160,2013-02-05 16:15:00
11:35 AM,29.3,21.6,73,29.91,7.0,South,9.2,-,N/A,,Overcast,170,2013-02-05 16:35:00
11:55 AM,29.8,21.2,70,29.90,7.0,South,8.1,-,N/A,,Overcast,180,2013-02-05 16:55:00
12:15 PM,30.2,21.6,70,29.89,7.0,South,9.2,-,N/A,,Overcast,180,2013-02-05 17:15:00
12:35 PM,30.9,22.1,70,29.88,7.0,SSE,8.1,-,N/A,,Overcast,160,2013-02-05 17:35:00
12:55 PM,31.6,22.6,69,29.88,7.0,South,9.2,-,N/A,,Overcast,190,2013-02-05 17:55:00
1:15 PM,31.6,22.3,68,29.87,10.0,SSW,9.2,-,N/A,,Overcast,200,2013-02-05 18:15:00
1:35 PM,31.8,23.0,70,29.86,10.0,South,10.4,-,N/A,,Overcast,180,2013-02-05 18:35:00
1:55 PM,31.8,23.0,70,29.85,10.0,SSW,11.5,-,N/A,,Overcast,200,2013-02-05 18:55:00
2:15 PM,32.0,23.7,71,29.84,10.0,SSW,10.4,-,N/A,,Mostly Cloudy,200,2013-02-05 19:15:00
2:35 PM,32.4,24.1,72,29.83,10.0,South,12.7,-,N/A,,Scattered Clouds,190,2013-02-05 19:35:00
2:55 PM,33.1,24.6,71,29.82,10.0,SSW,10.4,-,N/A,,Mostly Cloudy,210,2013-02-05 19:55:00
3:15 PM,33.8,25.2,71,29.82,10.0,SSW,15.0,-,N/A,,Mostly Cloudy,210,2013-02-05 20:15:00
3:35 PM,33.8,25.3,71,29.83,10.0,SW,11.5,19.6,N/A,,Mostly Cloudy,220,2013-02-05 20:35:00
3:55 PM,33.8,25.5,72,29.83,10.0,SW,16.1,-,N/A,,Scattered Clouds,230,2013-02-05 20:55:00
4:15 PM,34.2,25.9,72,29.84,10.0,SW,10.4,-,N/A,,Mostly Cloudy,230,2013-02-05 21:15:00
4:35 PM,34.3,26.2,72,29.83,10.0,SW,11.5,16.1,N/A,,Overcast,230,2013-02-05 21:35:00
4:55 PM,34.3,26.2,72,29.85,10.0,WSW,10.4,-,N/A,,Overcast,240,2013-02-05 21:55:00
5:15 PM,34.7,26.4,72,29.87,10.0,West,12.7,18.4,N/A,,Overcast,260,2013-02-05 22:15:00
5:35 PM,34.7,26.4,72,29.88,10.0,West,15.0,18.4,N/A,,Overcast,260,2013-02-05 22:35:00
5:55 PM,34.5,26.6,73,29.89,10.0,West,11.5,-,N/A,,Overcast,260,2013-02-05 22:55:00
6:15 PM,34.5,27.1,74,29.89,10.0,West,9.2,-,N/A,,Overcast,260,2013-02-05 23:15:00
6:35 PM,34.5,27.5,76,29.89,10.0,WSW,9.2,-,N/A,,Overcast,250,2013-02-05 23:35:00
6:55 PM,34.5,27.9,77,29.90,10.0,West,8.1,-,N/A,,Overcast,260,2013-02-05 23:55:00
7:15 PM,34.3,28.4,79,29.91,10.0,West,9.2,-,N/A,,Overcast,260,2013-02-06 00:15:00
7:35 PM,34.7,28.8,79,29.91,7.0,West,8.1,-,N/A,,Overcast,270,2013-02-06 00:35:00
7:55 PM,34.7,29.3,81,29.93,7.0,West,8.1,-,N/A,,Overcast,280,2013-02-06 00:55:00
8:15 PM,35.1,29.8,81,29.93,7.0,West,8.1,-,N/A,,Overcast,280,2013-02-06 01:15:00
8:35 PM,34.9,30.0,82,29.94,7.0,WNW,6.9,-,N/A,,Overcast,290,2013-02-06 01:35:00
8:55 PM,34.9,30.0,82,29.95,5.0,West,6.9,-,N/A,,Haze,280,2013-02-06 01:55:00
9:15 PM,34.7,29.8,82,29.96,7.0,WNW,8.1,-,N/A,,Overcast,300,2013-02-06 02:15:00
9:35 PM,34.7,29.7,82,29.97,7.0,WNW,8.1,-,N/A,,Overcast,290,2013-02-06 02:35:00
9:55 PM,34.3,29.1,81,29.98,7.0,WNW,10.4,-,N/A,,Overcast,300,2013-02-06 02:55:00
10:15 PM,34.0,28.6,81,29.99,7.0,NW,13.8,19.6,N/A,,Overcast,310,2013-02-06 03:15:00
10:35 PM,33.8,28.2,80,30.00,7.0,WNW,11.5,17.3,N/A,,Overcast,300,2013-02-06 03:35:00
10:55 PM,32.9,28.2,83,30.02,5.0,NW,12.7,-,N/A,,Haze,310,2013-02-06 03:55:00
11:15 PM,32.5,27.9,83,30.02,7.0,NW,10.4,18.4,N/A,,Overcast,320,2013-02-06 04:15:00
11:35 PM,32.0,27.3,83,30.03,7.0,WNW,11.5,18.4,N/A,,Overcast,300,2013-02-06 04:35:00
11:55 PM,32.0,27.1,82,30.03,7.0,WNW,10.4,16.1,N/A,,Overcast,290,2013-02-06 04:55:00